Location: Poughquag
(41.6090°N, 73.6820°W)
Time: 19:07:14
(UTC-05:00)

ISS - Pass Details

Date: 18 January 2020
Orbit: 415 x 422 km, 51.6° (Epoch: 27 February)

Event Time Altitude Azimuth Distance (km) Brightness Sun altitude
Rises 18:24:35 0° 194° (SSW) 2,362 0.4 -17.0°
Reaches altitude 10° 18:27:12 10° 173° (S) 1,502 -0.9 -17.4°
Enters shadow 18:28:31 15° 151° (SSE) 1,227 -1.6 -17.7°
